TimeMDT,TemperatureF,Dew PointF,Humidity,Sea Level PressureIn,VisibilityMPH,Wind Direction,Wind SpeedMPH,Gust SpeedMPH,PrecipitationIn,Events,Conditions,WindDirDegrees,DateUTC
12:53 AM,35.1,28.9,78,29.95,10.0,SSW,12.7,-,N/A,,Clear,200,2013-10-30 06:53:00
1:32 AM,33.8,28.4,81,29.98,10.0,South,11.5,-,N/A,,Mostly Cloudy,190,2013-10-30 07:32:00
1:53 AM,36.0,28.9,76,29.95,10.0,SSW,10.4,-,N/A,,Mostly Cloudy,200,2013-10-30 07:53:00
2:53 AM,39.0,30.0,70,29.94,10.0,SSW,9.2,-,N/A,,Overcast,210,2013-10-30 08:53:00
3:53 AM,39.9,30.9,70,29.95,10.0,SW,11.5,-,N/A,,Overcast,220,2013-10-30 09:53:00
4:53 AM,39.0,30.9,73,29.96,10.0,SSW,12.7,-,N/A,,Scattered Clouds,210,2013-10-30 10:53:00
5:03 AM,39.2,30.2,70,29.99,10.0,SSW,12.7,-,N/A,,Mostly Cloudy,210,2013-10-30 11:03:00
5:17 AM,39.2,30.2,70,29.99,10.0,SSW,9.2,-,N/A,,Mostly Cloudy,210,2013-10-30 11:17:00
5:53 AM,36.0,28.9,76,29.96,10.0,South,10.4,-,N/A,,Partly Cloudy,180,2013-10-30 11:53:00
6:53 AM,35.1,27.0,72,29.99,10.0,SSW,13.8,-,N/A,,Mostly Cloudy,200,2013-10-30 12:53:00
7:53 AM,35.1,27.0,72,30.00,10.0,SSW,13.8,-,N/A,,Partly Cloudy,200,2013-10-30 13:53:00
8:53 AM,36.0,27.0,70,30.02,10.0,SW,11.5,21.9,N/A,,Overcast,220,2013-10-30 14:53:00
9:53 AM,37.0,28.9,73,30.04,10.0,SW,16.1,-,N/A,,Mostly Cloudy,230,2013-10-30 15:53:00
10:17 AM,39.2,28.4,65,30.06,10.0,SW,18.4,26.5,N/A,,Overcast,230,2013-10-30 16:17:00
10:46 AM,41.0,30.2,65,30.05,10.0,WSW,16.1,-,N/A,,Overcast,240,2013-10-30 16:46:00
10:53 AM,42.1,28.9,60,30.03,10.0,WSW,19.6,26.5,N/A,,Overcast,240,2013-10-30 16:53:00
11:53 AM,44.1,28.0,53,30.02,10.0,WSW,19.6,26.5,N/A,,Mostly Cloudy,240,2013-10-30 17:53:00
12:53 PM,46.0,28.9,51,30.01,10.0,West,20.7,27.6,N/A,,Overcast,260,2013-10-30 18:53:00
1:53 PM,46.0,28.9,51,30.00,10.0,WSW,19.6,26.5,N/A,,Overcast,250,2013-10-30 19:53:00
2:53 PM,46.0,28.9,51,29.99,10.0,WSW,17.3,26.5,N/A,,Overcast,250,2013-10-30 20:53:00
3:53 PM,46.0,28.9,51,29.99,10.0,WSW,20.7,27.6,N/A,,Overcast,250,2013-10-30 21:53:00
4:53 PM,46.0,28.9,51,29.99,10.0,West,19.6,24.2,N/A,,Overcast,260,2013-10-30 22:53:00
5:53 PM,45.0,30.0,56,30.01,10.0,West,13.8,21.9,N/A,,Overcast,260,2013-10-30 23:53:00
6:53 PM,44.1,30.9,60,30.03,10.0,WSW,9.2,-,N/A,,Overcast,250,2013-10-31 00:53:00
7:53 PM,42.1,30.9,65,30.06,10.0,SW,6.9,-,N/A,,Overcast,230,2013-10-31 01:53:00
8:53 PM,39.0,28.9,67,30.07,10.0,SW,10.4,-,N/A,,Partly Cloudy,220,2013-10-31 02:53:00
9:53 PM,41.0,30.0,65,30.08,10.0,SSW,11.5,-,N/A,,Overcast,210,2013-10-31 03:53:00
10:53 PM,37.9,28.0,68,30.08,10.0,SSW,10.4,-,N/A,,Scattered Clouds,210,2013-10-31 04:53:00
11:53 PM,42.1,28.9,60,30.06,10.0,SW,12.7,-,N/A,,Partly Cloudy,220,2013-10-31 05:53:00